This demonstration page uses our WeatherBlox Daily Observations layout. Learn more.

Left ArrowRight Arrow

Hourly Observations for December 5, 2020

Temp ( °F °C ) Dew Point ( °F °C ) Humidity (%) Winds ( mph kmh ) Pressure ( in mb ) Visibility ( mi km ) Precip ( " mm )
12:56 am 00:56 Clear 36 2.2 21 -6.1 55 55 NW 9 15 30.22 1023 10 16 0.00 0.00
1:56 am 01:56 Clear 31 -0.6 21 -6.1 67 67 WNW 10 17 30.23 1024 10 16 0.00 0.00
2:56 am 02:56 Clear 35 1.7 21 -6.1 57 57 NW 12 19 30.22 1024 10 16 0.00 0.00
3:56 am 03:56 Clear 34 1.1 22 -5.6 61 61 NW 8 13 30.24 1024 10 16 0.00 0.00
4:56 am 04:56 Clear 34 1.1 21 -6.1 59 59 W 8 13 30.26 1025 10 16 0.00 0.00
5:56 am 05:56 Clear 31 -0.6 22 -5.6 69 69 W 7 11 30.27 1025 10 16 0.00 0.00
6:56 am 06:56 Clear 29 -1.7 21 -6.1 72 72 WNW 8 13 30.29 1026 10 16 0.00 0.00
7:56 am 07:56 Sunny 27 -2.8 21 -6.1 78 78 NW 7 11 30.32 1027 10 16 0.00 0.00
8:56 am 08:56 Sunny 35 1.7 24 -4.4 64 64 WNW 8 13 30.32 1027 10 16 0.00 0.00
9:56 am 09:56 Sunny 40 4.4 25 -3.9 55 55 NNW 13 20 30.33 1027 10 16 0.00 0.00
10:56 am 10:56 Sunny 46 7.8 25 -3.9 44 44 N 17 28 30.32 1027 10 16 0.00 0.00
11:56 am 11:56 Sunny 49 9.4 25 -3.9 39 39 NNW 14 22 30.30 1026 10 16 0.00 0.00
12:56 pm 12:56 Sunny 52 11.1 25 -3.9 35 35 NNW 16 26 30.27 1025 10 16 0.00 0.00
1:56 pm 13:56 Sunny 54 12.2 26 -3.3 34 34 NNW 17 28 30.24 1024 10 16 0.00 0.00
2:56 pm 14:56 Sunny 55 12.8 27 -2.8 34 34 N 16 26 30.23 1024 10 16 0.00 0.00
3:56 pm 15:56 Sunny 55 12.8 28 -2.2 35 35 N 17 28 30.22 1024 10 16 0.00 0.00
4:56 pm 16:56 Sunny 51 10.6 28 -2.2 41 41 NNW 8 13 30.24 1024 10 16 0.00 0.00
5:56 pm 17:56 Clear 42 5.6 26 -3.3 53 53 NW 6 9 30.26 1025 10 16 0.00 0.00
6:56 pm 18:56 Clear 40 4.4 25 -3.9 55 55 WNW 7 11 30.27 1025 10 16 0.00 0.00
7:56 pm 19:56 Clear 38 3.3 25 -3.9 60 60 WNW 7 11 30.27 1025 10 16 0.00 0.00
8:56 pm 20:56 Clear 34 1.1 24 -4.4 67 67 WNW 7 11 30.25 1025 10 16 0.00 0.00
9:56 pm 21:56 Clear 34 1.1 24 -4.4 67 67 NW 8 13 30.24 1024 10 16 0.00 0.00
10:56 pm 22:56 Clear 32 0 24 -4.4 73 73 NW 8 13 30.22 1023 10 16 0.00 0.00
11:56 pm 23:56 Clear 32 0 23 -5 69 69 NW 10 17 30.21 1023 10 16 0.00 0.00

Powered by AerisWeather